Location: Bh?mavarapp?du
(16.7041°N, 80.6518°E)
Time: 01:06:32
(UTC+00:00)

Cosmos 1825 Rocket - Pass Details

Date: 21 April 2021
Orbit: 604 x 630 km, 82.5° (Epoch: 07 May)

Event Time Altitude Azimuth Distance (km) Brightness Sun altitude
Rises 13:42:29 0° 3° (N) 2,887 7.2 -12.0°
Reaches altitude 10° 13:44:45 10° 9° (N) 1,985 6.3 -12.5°
Maximum altitude 13:49:01 50° 85° (E) 797 3.7 -13.5°
Drops below altitude 10° 13:53:19 10° 160° (SSE) 1,995 5.8 -14.5°
Enters shadow 13:53:46 - 162° (SSE) 2,176 6.0 -14.6°
